Orbital Elements at Epoch 2459000.5 (2020-May-31.0) TDB
Reference: JPL 13 (heliocentric ecliptic J2000)
Element | Value | Uncertainty (1-sigma) | Units |
e | .1688525311841728 | 4.7177e-08 | |
a | 2.76857533994738 | 2.8966e-08 | au |
q | 2.301094386023183 | 1.2753e-07 | au |
i | 9.273012068946024 | 9.1633e-06 | deg |
node | 203.0033322407465 | 3.1491e-05 | deg |
peri | 85.79478653310203 | 4.3616e-05 | deg |
M | 133.216102002924 | 2.8313e-05 | deg |
tp | 2458377.859785236887 (2018-Sep-16.35978524) | 0.0001301 | TDB |
period | 1682.607987657535 4.61 | 2.6406e-05 7.23e-08 | d yr |
n | .2139535783977698 | 3.3577e-09 | deg/d |
Q | 3.236056293871577 | 3.3857e-08 | au |
|
| | Orbit Determination Parameters
Additional Information
|